Henderson, NV

8:54 AM PST on December 10, 2016 (GMT -0800)
Henderson

Weather History for KHND - April, 2014

Change the Weather History Date:

Sunday, April 6, 2014

  Actual Average (KLAS) Record (KLAS)
Temperature  
Mean Temperature 61 °F -  
Max Temperature 75 °F 76 °F 95 °F (1989)
Min Temperature 47 °F 49 °F 35 °F (1945)
Degree Days  
Heating Degree Days 4    
Growing Degree Days 11 (Base 50)    
Moisture  
Dew Point 22 °F    
Average Humidity 22    
Maximum Humidity 38    
Minimum Humidity 13    
Precipitation  
Precipitation 0.00 in - - ()
Sea Level Pressure  
Sea Level Pressure 30.07 in    
Wind  
Wind Speed 7 mph (North)    
Max Wind Speed 17 mph    
Max Gust Speed 21 mph    
Visibility 10 miles    
Events      
Averages and records for this station are not official NWS values.
T = Trace of Precipitation, MM = Missing Value Source: NWS Daily Summary

Daily Weather History Graph

Daily Weather History Graph

Search for Another Location

Airport or City:

Trip Planner

Search our weather history database for the weather conditions in past years. The results will help you decide how hot, cold, wet, or windy it might be!

Date:

Astronomy

Apr. 06, 2014 Rise Set
Actual Time 6:19 AM PDT 7:06 PM PDT
Civil Twilight 5:53 AM PDT 7:32 PM PDT
Nautical Twilight 5:23 AM PDT 8:03 PM PDT
Astronomical Twilight 4:51 AM PDT 8:35 PM PDT
Moon 11:30 AM PDT (4/6) 12:59 AM PDT (4/6)
Length of Visible Light 13h 39m
Length of Day
12h 47m
Waxing Crescent, 45% of the Moon is Illuminated
Apr 6
Waxing Crescent
Apr 7
First Quarter
Apr 15
Full
Apr 22
Last Quarter
Apr 28
New

Hourly Weather History & Observations

Time (PDT) Temp. Dew Point Humidity Pressure Visibility Wind Dir Wind Speed Gust Speed Precip Events Conditions
12:56 AM 55.9 °F 22.1 °F 27% 30.03 in 10.0 mi Calm Calm - N/A   Clear
1:56 AM 54.9 °F 23.0 °F 29% 30.04 in 10.0 mi NNE 4.6 mph - N/A   Clear
2:56 AM 54.9 °F 21.0 °F 27% 30.04 in 10.0 mi North 10.4 mph - N/A   Clear
3:56 AM 56.8 °F 22.1 °F 26% 30.05 in 10.0 mi NNW 10.4 mph - 0.00 in   Clear
4:56 AM 54.0 °F 23.0 °F 30% 30.06 in 10.0 mi Calm Calm - N/A   Clear
5:56 AM 47.8 °F 23.0 °F 38% 30.09 in 10.0 mi SSE 5.8 mph - N/A   Clear
6:56 AM 48.9 °F 24.1 °F 38% 30.11 in 10.0 mi SSE 5.8 mph - N/A   Clear
7:56 AM 57.9 °F 24.1 °F 27% 30.12 in 10.0 mi North 10.4 mph - 0.00 in   Clear
8:56 AM 63.0 °F 23.0 °F 22% 30.13 in 10.0 mi North 17.3 mph - N/A   Clear
9:56 AM 63.9 °F 23.0 °F 21% 30.14 in 10.0 mi North 11.5 mph 19.6 mph N/A   Clear
10:56 AM 66.9 °F 22.1 °F 18% 30.13 in 10.0 mi NNE 15.0 mph 20.7 mph N/A   Clear
11:56 AM 68.0 °F 22.1 °F 18% 30.11 in 10.0 mi North 8.1 mph - N/A   Clear
12:56 PM 70.9 °F 22.1 °F 16% 30.09 in 10.0 mi North 8.1 mph 16.1 mph N/A   Clear
1:56 PM 72.0 °F 22.1 °F 15% 30.07 in 10.0 mi North 11.5 mph 18.4 mph N/A   Clear
2:56 PM 74.8 °F 22.1 °F 14% 30.05 in 10.0 mi North 11.5 mph 18.4 mph N/A   Clear
3:56 PM 73.9 °F 21.0 °F 14% 30.04 in 10.0 mi North 13.8 mph 20.7 mph N/A   Clear
4:56 PM 74.8 °F 21.0 °F 13% 30.01 in 10.0 mi North 5.8 mph - N/A   Clear
5:56 PM 75.9 °F 21.0 °F 13% 30.01 in 10.0 mi North 10.4 mph - N/A   Clear
6:56 PM 73.9 °F 21.0 °F 14% 30.00 in 10.0 mi NNW 6.9 mph - N/A   Clear
7:56 PM 70.9 °F 21.0 °F 15% 30.01 in 10.0 mi NW 5.8 mph - N/A   Clear
8:56 PM 68.9 °F 21.0 °F 16% 30.04 in 10.0 mi Calm Calm - N/A   Clear
10:56 PM 63.0 °F 24.1 °F 23% 30.08 in 10.0 mi Calm Calm - N/A   Clear
11:56 PM 56.8 °F 23.0 °F 27% 30.09 in 10.0 mi SE 4.6 mph - N/A   Clear